Tracking 25686 objects as of 25-May-2022
HD Live streaming from Space Station
objects crossing your sky now

ARIANE 1 DEB

Track ARIANE 1 DEB now!
10-day predictions


NORAD ID: 39107
Int'l Code: 1986-019VV
Perigee: 764.6 km
Apogee: 991.2 km
Inclination: 98.8 °
Period: 102.4 minutes
Semi major axis: 7248 km
RCS: 0.0163 m2 (small)
Launch date: February 22, 1986
Source: France (FR)
Launch site: FRENCH GUIANA (FRGUI)

Note: This is SATELLITE DEBRIS
aabbcc
Your satellite tracking list
Your tracking list is empty




NASA's NSSDC Master Catalog

Two Line Element Set (TLE):
1 39107U 86019VV  22144.40258725  .00000940  00000-0  53086-3 0  9998
2 39107  98.8020 194.0288 0156309 245.2782 113.2048 14.06682940455660
Source of the keplerian elements: AFSPC